Weather History for Lone Rock, WI

Change the Weather History Date:

Friday, November 8, 2013

  Actual Average Record
Temperature  
Mean Temperature 34 °F -  
Max Temperature 50 °F 46 °F 73 °F (1999)
Min Temperature 21 °F 29 °F 10 °F (2003)
Degree Days  
Heating Degree Days 30    
Moisture  
Dew Point 24 °F    
Average Humidity 80    
Maximum Humidity 100    
Minimum Humidity 50    
Precipitation  
Precipitation 0.00 in - - ()
Sea Level Pressure  
Sea Level Pressure 30.17 in    
Wind  
Wind Speed 3 mph (SE)    
Max Wind Speed 17 mph    
Max Gust Speed 31 mph    
Visibility 5 miles    
Events Fog , Rain    
Averages and records for this station are not official NWS values.
T = Trace of Precipitation, MM = Missing Value Source: NWS Daily Summary

Daily Weather History Graph

Daily Weather History Graph

Search for Another Location

Airport:

Trip Planner

Search our weather history database for the weather conditions in past years. The results will help you decide how hot, cold, wet, or windy it might be!

Date:

Astronomy

Nov. 08, 2013 Rise Set
Actual Time 6:44 AM CST 4:43 PM CST
Civil Twilight 6:14 AM CST 5:13 PM CST
Nautical Twilight 5:40 AM CST 5:47 PM CST
Astronomical Twilight 5:07 AM CST 6:20 PM CST
Moon 11:40 AM CST (11/8) 10:05 PM CST (11/8)
Length of Visible Light 10h 58m
Length of Day
9h 58m
Waxing Crescent, 33% of the Moon is Illuminated
Nov 8
Waxing Crescent
Nov 9
First Quarter
Nov 17
Full
Nov 25
Last Quarter
Dec 2
New

Hourly Weather History & Observations

Time (CST) Temp. Windchill Dew Point Humidity Pressure Visibility Wind Dir Wind Speed Gust Speed Precip Events Conditions
12:56 AM 26.1 °F - 24.1 °F 92% 30.26 in 6.0 mi Calm Calm - N/A   Clear
1:56 AM 23.0 °F 18.4 °F 19.9 °F 88% 30.25 in 4.0 mi NE 3.5 mph - N/A   Clear
2:17 AM 24.8 °F - 21.2 °F 86% 30.25 in 2.5 mi Calm Calm - N/A   Clear
2:31 AM 24.8 °F - 21.2 °F 86% 30.25 in 4.0 mi Calm Calm - N/A   Clear
2:56 AM 25.0 °F - 23.0 °F 92% 30.27 in 5.0 mi Calm Calm - N/A   Clear
3:29 AM 23.0 °F - 19.4 °F 86% 30.25 in 2.0 mi Calm Calm - N/A   Partly Cloudy
3:31 AM 23.0 °F - 19.4 °F 86% 30.25 in 0.5 mi Calm Calm - N/A Fog Light Freezing Fog
3:40 AM 24.8 °F - 21.2 °F 86% 30.25 in 0.2 mi Calm Calm - N/A Fog Light Freezing Fog
3:52 AM 23.0 °F - 21.2 °F 93% 30.25 in 0.8 mi Calm Calm - N/A   Mist
3:56 AM 21.9 °F - 21.0 °F 96% 30.27 in 0.8 mi Calm Calm - N/A   Mist
4:00 AM 21.2 °F - 19.4 °F 93% 30.25 in 1.2 mi Calm Calm - N/A   Scattered Clouds
4:04 AM 21.2 °F - 19.4 °F 93% 30.25 in 3.0 mi Calm Calm - N/A   Partly Cloudy
4:56 AM 21.0 °F - 18.0 °F 88% 30.27 in 1.8 mi Calm Calm - N/A   Clear
5:09 AM 21.2 °F - 21.2 °F 100% 30.26 in 3.0 mi Calm Calm - N/A   Clear
5:26 AM 21.2 °F - 19.4 °F 93% 30.25 in 5.0 mi Calm Calm - N/A   Partly Cloudy
5:56 AM 23.0 °F - 19.9 °F 88% 30.28 in 5.0 mi Calm Calm - N/A   Clear
6:15 AM 21.2 °F - 17.6 °F 86% 30.26 in 5.0 mi Calm Calm - N/A   Scattered Clouds
6:20 AM 21.2 °F 16.4 °F 19.4 °F 93% 30.26 in 2.5 mi East 3.5 mph - N/A   Mostly Cloudy
6:24 AM 21.2 °F 16.4 °F 19.4 °F 93% 30.26 in 0.8 mi ENE 3.5 mph - N/A   Mist
6:29 AM 21.2 °F 14.9 °F 19.4 °F 93% 30.26 in 0.2 mi ENE 4.6 mph - N/A Fog Light Freezing Fog
6:56 AM 23.0 °F - 21.9 °F 96% 30.29 in 0.2 mi Calm Calm - N/A Fog Light Freezing Fog
7:16 AM 24.8 °F 20.5 °F 21.2 °F 86% 30.27 in 0.5 mi NE 3.5 mph - N/A Fog Light Freezing Fog
7:35 AM 24.8 °F - 23.0 °F 93% 30.28 in 1.0 mi Calm Calm - N/A   Mist
7:54 AM 24.8 °F - 24.8 °F 100% 30.28 in 0.5 mi Calm Calm - N/A Fog Light Freezing Fog
7:56 AM 26.1 °F - 24.1 °F 92% 30.29 in 0.5 mi Calm Calm - N/A Fog Light Freezing Fog
8:22 AM 28.4 °F 24.6 °F 26.6 °F 93% 30.27 in 2.0 mi East 3.5 mph - N/A   Mostly Cloudy
8:25 AM 28.4 °F - 26.6 °F 93% 30.27 in 3.0 mi Calm Calm - N/A   Scattered Clouds
8:56 AM 28.9 °F 25.2 °F 27.0 °F 92% 30.27 in 4.0 mi East 3.5 mph - N/A   Clear
9:56 AM 32.0 °F 27.5 °F 28.9 °F 88% 30.25 in 6.0 mi ESE 4.6 mph - N/A   Clear
10:56 AM 36.0 °F 32.1 °F 30.9 °F 82% 30.23 in 6.0 mi East 4.6 mph - N/A   Haze
11:56 AM 41.0 °F 39.0 °F 32.0 °F 70% 30.19 in 8.0 mi ESE 3.5 mph - N/A   Scattered Clouds
12:56 PM 44.1 °F 40.1 °F 30.9 °F 60% 30.14 in 10.0 mi ESE 6.9 mph - N/A   Mostly Cloudy
1:56 PM 46.0 °F 41.4 °F 28.9 °F 51% 30.09 in 10.0 mi SSE 9.2 mph - N/A   Mostly Cloudy
2:56 PM 46.9 °F - 28.9 °F 50% 30.05 in 10.0 mi SE 10.4 mph - N/A   Mostly Cloudy
3:56 PM 46.0 °F 39.0 °F 28.0 °F 50% 30.01 in 10.0 mi SE 17.3 mph 23.0 mph N/A   Clear
4:56 PM 46.0 °F 40.6 °F 28.9 °F 51% 29.99 in 10.0 mi SE 11.5 mph 21.9 mph N/A   Clear
5:56 PM 46.0 °F 40.2 °F 28.0 °F 50% 29.97 in 10.0 mi SSE 12.7 mph 19.6 mph N/A   Clear
6:56 PM 46.0 °F 39.0 °F 28.0 °F 50% 29.97 in 10.0 mi SSE 17.3 mph 24.2 mph N/A   Scattered Clouds
7:56 PM 45.0 °F 38.9 °F 30.0 °F 56% 29.93 in 10.0 mi SSE 12.7 mph 21.9 mph N/A   Overcast
8:56 PM 45.0 °F 40.6 °F 30.9 °F 58% 29.89 in 10.0 mi SSE 8.1 mph 20.7 mph N/A   Overcast
9:56 PM 48.0 °F - 32.0 °F 54% 29.81 in 10.0 mi South 17.3 mph 27.6 mph N/A   Overcast
10:56 PM 48.0 °F - 34.0 °F 58% 29.77 in 10.0 mi South 16.1 mph 31.1 mph 0.00 in Rain Light Rain
11:56 PM 50.0 °F - 33.1 °F 52% 29.75 in 10.0 mi SSW 12.7 mph 23.0 mph 0.00 in   Mostly Cloudy